Flag Weather past 2 weeks in Homberg (Efze), Hesse, Germany

Now
44 °F

Overcast.


Feels Like: 43 °F
Forecast: 35 / 46 °F
Wind: 3 mph from South

Location: Fritzlar

Current Time: Nov 23, 2014 at 10:24:45 PM

Latest Report: Nov 23, 2014 at 10:00 PM


Visibility: 11 mi

Pressure: 30.10 "Hg

Humidity: 84%

Dew point: 40 °F

Location of Homberg (Efze)Location

Historic Weather in Homberg (Efze) — Graph

°F

Homberg (Efze) temperature yesterday

Maximum temperature yesterday: 43 °F (at 3:00 PM)
Minimum temperature yesterday: 29 °F (at 8:00 AM)
Average temperature yesterday: 37 °F

Past Weeks' High & Low Weather Summary

 TemperatureHumidityPressure
High53 °F (Nov 11, 3:00 PM)98% (Nov 9, 7:00 AM)30.36 "Hg (Nov 9, 7:00 AM)
Low29 °F (Nov 22, 8:00 AM)71% (Nov 17, 6:00 PM)29.50 "Hg (Nov 16, 5:00 AM)
Average45 °F90%29.93 "Hg
* Reported Nov 8 9:00 PM — Nov 23 9:00 PM, Homberg (Efze), Weather by CustomWeather, © 2014

Note: Actual official high and low records may vary slightly from our data, if they occured in-between our weather recording intervals... More about our weather records

Advertising

Homberg (Efze) weather history for previous 24 hours

 ConditionsComfort  
Time TempWeatherWind HumidityBarometerVisibility
9:00 PM
Nov 23
44 °FPassing clouds.N/A85%30.10 "Hg11 mi
8:00 PM42 °FPassing clouds.2 mph90%30.10 "Hg10 mi
7:00 PM42 °FPassing clouds.3 mph93%30.10 "Hg10 mi
6:00 PM42 °FPassing clouds.1 mph95%30.11 "Hg10 mi
5:00 PM46 °FPassing clouds.2 mph88%30.10 "Hg11 mi
4:00 PM48 °FPartly sunny.2 mph84%30.12 "Hg11 mi
3:00 PM49 °FPartly sunny.2 mph78%30.14 "Hg11 mi
2:00 PM49 °FScattered clouds.2 mph78%30.16 "Hg9 mi
1:00 PM45 °FScattered clouds.3 mph87%30.17 "Hg9 mi
12:00 PM42 °FScattered clouds.3 mph92%30.21 "Hg6 mi
11:00 AM40 °FFog.3 mph94%30.22 "Hg3 mi
10:00 AM39 °FFog.2 mph97%30.23 "Hg2 mi
9:00 AM38 °FFog.3 mph98%30.23 "Hg2 mi
8:00 AM38 °FFog.3 mph98%30.22 "Hg1 mi
7:00 AM38 °FFog.5 mph97%30.21 "Hg2 mi
6:00 AM38 °FFog.3 mph97%30.21 "Hg2 mi
5:00 AM38 °FFog.5 mph96%30.21 "Hg3 mi
4:00 AM40 °FFog.5 mph95%30.21 "Hg3 mi
3:00 AM41 °FFog.3 mph96%30.22 "Hg1 mi
2:00 AM41 °FFog.3 mph96%30.22 "Hg1 mi
1:00 AM41 °FFog.3 mph97%30.21 "Hg1 mi
12:00 AM42 °FFog.5 mph97%30.21 "Hg1 mi
11:00 PM
Nov 22
42 °FFog.3 mph97%30.21 "Hg1 mi
10:00 PM42 °FFog.3 mph96%30.20 "Hg1 mi
Weather by CustomWeather, © 2014

See weather overviewHow to use our weather pages